This is the latest recevied weather packets stored in our database for station/object KC8ZBC. If no packets are shown the sender has not sent any weather packets the latest 10 day(s).
| Time | Temp. | Humidity | Pressure | Rain* | Wind** | Luminosity | Snow |
|---|---|---|---|---|---|---|---|
| 1777484527 | 10° C | 86% | 986.4 hPa | 0 mm | - | 500 W/m² | - |
| 1777484224 | 9.44° C | 86% | 986.6 hPa | 0 mm | - | 422 W/m² | - |
| 1777483921 | 9.44° C | 86% | 986.5 hPa | 0 mm | - | 270 W/m² | - |
| 1777483617 | 9.44° C | 87% | 986.5 hPa | 0 mm | - | 242 W/m² | - |
| 1777483312 | 8.89° C | 87% | 986.8 hPa | 0 mm | - | 198 W/m² | - |
| 1777483008 | 8.89° C | 88% | 986.8 hPa | 0 mm | - | 215 W/m² | - |
| 1777482704 | 8.89° C | 89% | 987 hPa | 0 mm | - | 159 W/m² | - |
| 1777482401 | 8.89° C | 90% | 987 hPa | 0 mm | - | 198 W/m² | - |
| 1777482099 | 8.33° C | 89% | 986.8 hPa | 0.51 mm | - | 185 W/m² | - |
| 1777481797 | 8.33° C | 89% | 987 hPa | 0.51 mm | - | 142 W/m² | - |
| 1777481493 | 8.33° C | 90% | 987.1 hPa | 0 mm | - | 188 W/m² | - |
| 1777481189 | 8.33° C | 89% | 986.9 hPa | 0 mm | - | 234 W/m² | - |
| 1777480886 | 8.33° C | 91% | 986.9 hPa | 0 mm | - | 177 W/m² | - |
| 1777480583 | 8.33° C | 90% | 987 hPa | 0 mm | - | 166 W/m² | - |
| 1777480280 | 8.33° C | 90% | 987.2 hPa | 0 mm | - | 154 W/m² | - |
| 1777479976 | 8.33° C | 90% | 987.2 hPa | 0 mm | - | 196 W/m² | - |
| 1777479673 | 8.33° C | 90% | 987.2 hPa | 0 mm | - | 185 W/m² | - |
| 1777479371 | 8.33° C | 90% | 987.2 hPa | 0 mm | - | 165 W/m² | - |
| 1777479067 | 7.78° C | 90% | 987.7 hPa | 0 mm | - | 138 W/m² | - |
| 1777478763 | 7.78° C | 89% | 987.3 hPa | 0 mm | - | 184 W/m² | - |
| 1777478460 | 7.78° C | 89% | 987.3 hPa | 0 mm | - | 254 W/m² | - |
| 1777478157 | 7.78° C | 90% | 987.5 hPa | 0 mm | - | 212 W/m² | - |
| 1777477853 | 7.78° C | 92% | 987.3 hPa | 0 mm | - | 163 W/m² | - |
| 1777477549 | 7.78° C | 92% | 987.5 hPa | 0 mm | - | 159 W/m² | - |
| 1777477246 | 7.78° C | 92% | 987.4 hPa | 0 mm | - | 157 W/m² | - |
* Rain latest hour (hover to see other rain measurements)
** Current wind speed in m/s (hover to see current wind gust speed)